EHI
0 0 0 0 0 0 0 0 0 0 0 0 0 0 0 0 0 0 1 4 4 3 3 4 6 8 10 11 12 11 8 4 2 2 2 1 0 0 0 0 0 0 1 2 1 0 0 0 0
0 0 0 0 0 0 0 0 0 0 0 0 0 0 0 0 0 0 1 3 4 2 1 3 5 7 9 10 10 9 7 3 2 3 3 1 0 0 0 0 0 1 2 2 1 0 0 0 0
0 0 0 0 0 0 0 0 0 0 0 0 0 0 0 0 0 0 1 2 2 2 1 2 4 4 6 7 7 7 6 3 2 3 3 1 0 0 0 0 0 1 2 2 1 0 0 0 0
0 0 0 0 0 0 0 0 0 0 0 0 0 0 0 0 0 1 1 1 2 2 1 2 3 3 4 5 5 6 5 3 1 2 3 1 0 1 1 0 0 1 2 1 0 0 0 0 0
0 0 0 0 0 0 0 0 0 0 0 0 0 0 0 0 0 1 2 3 4 3 1 2 4 3 3 4 5 5 3 2 1 1 2 1 1 2 2 1 0 0 1 1 0 0 0 0 0
0 0 0 0 0 0 0 0 0 0 0 0 0 0 0 0 0 1 2 3 4 3 1 2 3 2 1 3 4 3 1 1 0 1 2 1 1 2 2 1 0 0 0 0 0 0 0 0 0
0 0 0 0 0 0 0 0 0 0 0 0 0 0 0 0 0 0 1 2 3 2 1 1 2 1 0 1 1 1 0 0 0 1 1 1 0 1 1 0 0 0 0 0 0 0 0 0 0
0 0 0 0 0 0 0 0 0 0 0 0 0 0 0 0 0 0 0 1 1 1 0 0 0 0 0 0 0 0 0 0 0 0 0 0 0 0 0 0 0 0 0 0 0 0 0 0 0
0 0 0 0 0 0 0 0 0 0 0 0 0 0 0 0 0 0 0 0 0 0 0 0 0 0 0 0 0 0 0 0 0 0 0 0 0 0 0 0 0 0 0 0 0 0 0 0 0
0 0 0 0 0 0 0 0 0 0 0 0 0 0 0 0 0 0 0 0 0 0 0 0 0 0 0 0 0 0 0 0 0 0 0 0 0 0 0 0 0 0 0 0 0 0 0 0 0
0 0 0 0 0 0 0 0 0 0 0 0 0 0 0 0 0 0 0 0 0 0 0 0 0 0 0 0 0 0 0 0 0 0 0 0 0 0 0 0 0 0 0 0 0 0 0 0 0
0 0 0 0 0 0 0 0 0 0 0 0 0 0 0 0 0 0 0 0 0 0 0 0 0 0 0 0 0 0 0 0 0 0 1 1 0 0 0 0 0 0 0 0 0 0 0 0 0
0 0 0 0 0 0 0 0 0 0 0 0 0 0 0 0 0 0 0 0 0 0 0 0 0 0 0 0 0 0 0 0 0 0 1 2 1 0 0 0 0 0 0 0 0 0 0 0 0
0 0 0 0 0 0 0 0 0 0 0 0 0 0 0 0 0 0 0 0 0 0 0 0 0 0 0 0 0 0 0 0 0 0 1 2 2 1 0 0 0 0 0 0 0 0 0 0 0
0 0 0 0 0 0 0 0 0 0 0 0 0 0 0 0 0 0 0 0 0 0 0 0 0 0 0 0 0 0 0 0 0 0 0 1 1 1 0 0 0 0 0 0 0 0 0 0 0
0 0 0 0 0 0 0 0 0 0 0 0 0 0 0 0 0 0 0 0 0 0 0 0 0 0 0 0 0 0 0 0 0 0 0 0 0 1 0 0 0 0 0 0 0 0 0 0 0
0 0 0 0 0 0 0 0 0 0 0 0 0 0 0 0 0 0 0 0 0 0 0 0 0 0 0 0 0 0 0 0 0 0 0 0 1 1 1 0 0 0 0 0 0 0 0 0 0
0 0 0 0 0 0 0 0 0 0 0 0 0 0 0 0 0 0 0 0 0 0 0 0 0 0 0 0 0 0 0 0 0 0 0 0 1 2 2 1 0 0 0 0 0 0 0 0 0
0 0 0 0 0 0 0 0 0 0 0 0 0 0 0 0 0 0 0 0 0 0 0 0 0 0 0 0 0 0 0 0 0 0 0 0 0 1 1 1 0 0 0 0 0 0 0 0 0
0 0 0 0 0 0 0 0 0 0 0 0 0 0 0 0 0 0 0 0 0 0 0 0 0 0 0 0 0 0 0 0 0 0 0 0 0 0 0 0 0 0 0 0 0 0 0 0 0
0 0 0 0 0 0 0 0 0 0 0 0 0 0 0 0 0 0 0 0 0 0 0 0 0 0 0 0 0 0 0 0 0 0 0 0 0 0 0 0 0 0 0 0 0 0 0 0 0
0 0 0 0 0 0 0 0 0 0 0 0 0 0 0 0 0 0 0 0 0 0 0 0 0 0 0 0 0 0 0 0 0 0 0 0 0 0 0 0 0 0 0 0 0 0 0 0 0
0 0 0 0 0 0 0 0 0 0 0 0 0 0 0 0 0 0 0 0 0 0 0 0 0 0 0 0 0 0 0 0 0 0 0 0 0 0 0 0 0 0 0 0 0 0 0 0 0
0 0 0 0 0 0 0 0 0 0 0 0 0 0 0 0 0 0 0 0 0 0 0 0 0 0 0 0 0 0 0 0 0 0 0 0 0 0 0 0 0 0 0 0 0 0 0 0 0
0 0 0 0 0 0 0 0 0 0 0 0 0 0 0 0 0 0 0 0 0 0 0 0 0 0 0 0 0 0 0 0 0 0 0 0 0 0 0 0 0 0 0 0 0 0 1 0 0
0 0 0 0 0 0 0 0 0 0 0 0 0 0 0 0 0 0 0 0 0 0 0 0 0 0 0 0 0 0 0 0 0 0 0 0 0 0 0 0 0 0 0 0 0 0 0 0 0
0 0 0 0 0 0 0 0 0 0 0 0 0 0 0 0 0 0 0 0 0 0 0 0 0 0 0 0 0 0 0 0 0 0 0 0 0 0 0 0 0 0 0 0 0 0 0 0 0
0 0 0 0 0 0 0 0 0 0 0 0 0 0 0 0 0 0 0 0 0 0 0 0 0 0 0 0 0 0 0 0 0 0 0 0 0 0 0 0 0 0 0 0 0 0 0 0 0
0 0 0 0 0 0 0 0 0 0 0 0 0 0 0 0 0 0 0 0 0 0 0 0 0 0 0 0 0 0 0 0 0 0 0 0 0 0 0 0 0 0 0 0 0 0 0 0 0
0 0 0 0 0 0 0 0 0 0 0 0 0 0 0 0 0 0 0 0 0 0 0 0 0 0 0 0 0 0 0 0 0 0 0 0 0 0 0 0 0 0 0 0 0 0 0 0 0
Wind_Speed
9 10 7 3 3 5 7 6 3 2 3 5 6 4 4 5 5 6 3 8 7 4 5 8 7 7 7 7 8 10 10 10 10 10 10 10 9 9 9 9 9 9 9 9 9 9 11 11 11
9 8 5 3 4 6 6 7 3 4 6 5 4 3 3 5 7 7 5 7 7 4 4 6 7 7 7 7 8 9 10 10 10 10 10 10 9 9 9 9 9 9 9 9 9 10 11 11 11
10 8 4 4 5 6 3 2 5 8 7 2 1 1 3 5 6 5 5 7 7 5 4 6 8 6 7 7 7 8 9 10 9 9 10 10 9 9 9 9 8 8 8 9 10 10 11 11 10
5 3 4 6 9 5 1 5 6 6 5 1 1 2 5 6 5 5 7 8 7 6 5 5 6 6 6 6 7 8 9 9 9 9 10 10 10 10 9 8 8 8 9 10 10 11 11 10 9
4 3 5 7 9 4 2 6 3 2 4 3 0 1 5 6 8 7 7 7 6 6 4 3 4 5 6 6 7 7 8 9 9 10 10 11 10 10 9 9 9 9 10 10 11 11 11 10 9
3 4 6 8 8 5 3 4 1 1 3 3 1 0 4 7 7 6 6 6 6 5 4 2 2 3 5 6 7 7 8 8 9 9 10 10 10 10 10 10 10 10 11 11 11 11 11 10 9
4 4 6 7 6 5 4 3 2 1 2 2 1 0 4 7 5 5 5 5 6 5 4 2 1 1 3 5 6 7 8 8 8 9 9 9 10 9 10 10 11 11 12 11 11 11 11 10 9
4 3 6 6 5 3 5 3 3 4 2 4 3 1 3 4 4 4 4 4 4 5 4 3 2 1 1 2 6 7 8 8 9 9 9 9 9 9 10 10 11 11 11 11 11 11 11 10 8
4 3 4 3 2 5 5 3 3 2 2 2 2 2 3 4 5 5 4 4 4 5 4 4 3 2 2 2 4 6 7 8 8 8 9 9 6 7 8 10 11 12 12 12 12 12 11 9 7
3 3 1 4 6 6 5 3 2 1 1 1 1 1 2 4 4 4 4 5 5 5 5 4 4 3 3 3 2 3 4 5 6 5 7 6 6 6 8 11 13 13 12 12 12 11 10 7 4
3 2 2 5 8 5 4 2 2 2 1 1 2 3 4 4 4 4 4 4 4 4 4 4 4 4 3 2 2 2 2 3 5 6 7 6 5 5 5 4 7 8 9 7 8 8 5 5 5
3 1 2 4 4 3 2 2 2 3 2 4 5 4 4 5 4 4 4 4 4 4 4 4 4 4 4 3 2 2 2 3 3 5 6 5 4 4 4 5 6 6 5 6 6 5 6 7 7
4 2 4 3 1 1 2 3 3 4 4 3 3 3 4 4 4 4 3 4 4 5 5 5 5 4 4 3 3 3 3 3 4 4 5 5 4 5 5 5 6 6 6 6 7 7 8 8 7
3 4 3 2 2 1 2 3 4 4 2 2 2 2 3 4 4 5 4 4 4 5 5 5 5 5 4 4 3 3 3 4 4 4 5 6 5 5 5 5 6 7 6 6 7 8 7 6 6
4 4 3 4 4 2 1 5 5 4 2 3 3 2 2 3 3 3 4 4 5 5 5 5 5 5 5 5 5 4 4 4 4 4 5 6 6 6 5 5 6 6 7 7 6 7 6 5 5
4 4 4 5 4 3 2 3 3 2 2 3 3 2 3 3 3 3 3 4 4 5 6 6 6 5 5 5 4 4 4 4 4 4 4 6 6 6 6 5 5 6 6 6 6 5 5 5 5
4 4 4 5 4 3 4 3 1 1 2 2 3 2 2 3 3 4 4 4 4 5 5 6 5 5 6 6 4 4 4 4 3 3 4 5 6 6 5 5 5 5 5 5 6 5 5 5 5
4 4 3 4 4 3 4 4 3 2 1 2 3 3 3 4 5 6 5 5 5 5 5 6 5 5 5 5 4 3 4 4 3 3 4 5 5 6 5 4 5 5 5 5 5 6 5 4 5
1 1 2 3 2 2 4 5 3 2 1 2 3 3 4 5 5 5 5 5 6 5 6 6 5 5 3 3 3 3 3 3 3 3 5 5 5 5 5 4 5 5 6 6 6 5 6 5 3
1 1 2 1 0 2 3 6 4 2 1 1 2 3 5 6 7 7 7 6 6 6 6 6 5 4 4 3 3 3 3 3 3 3 4 5 5 5 5 5 5 5 5 6 7 5 4 4 5
1 0 1 1 3 4 3 5 4 3 3 1 1 3 4 5 7 8 8 8 7 7 6 6 6 5 4 3 2 3 3 3 3 3 4 5 5 5 5 5 5 5 6 6 7 7 7 5 5
1 3 1 1 2 2 2 3 2 3 2 0 2 3 4 6 7 8 9 9 8 8 6 6 6 5 4 3 2 3 3 4 4 3 3 4 5 5 5 6 6 6 5 6 6 7 6 6 5
2 2 2 2 2 3 3 3 3 3 1 1 2 3 5 6 7 8 8 9 8 8 7 6 6 6 4 3 3 3 4 4 3 3 4 4 3 4 5 5 5 5 5 6 6 6 7 7 7
1 2 3 3 2 3 4 3 3 1 1 2 2 4 5 6 6 7 7 8 8 8 7 6 6 6 5 4 3 3 4 5 4 4 3 3 2 2 3 4 3 4 4 5 6 6 7 7 8
1 1 1 2 3 3 3 2 3 1 2 2 3 4 4 5 6 7 8 8 9 9 9 8 7 6 6 5 4 4 4 4 4 4 3 3 2 2 3 3 3 3 3 4 5 6 6 7 8
1 2 2 2 1 0 2 3 1 3 3 2 2 2 3 4 5 6 7 7 8 9 9 9 8 8 7 6 5 4 4 3 2 3 3 3 2 2 2 2 2 2 3 3 3 4 4 5 6
1 1 1 2 3 2 3 2 2 2 1 0 1 1 3 4 5 5 6 6 7 8 8 8 8 8 8 8 7 6 5 4 3 3 3 3 3 3 3 2 2 2 2 2 2 2 3 3 4
2 2 1 1 2 3 2 2 2 2 1 1 1 1 2 3 4 5 5 5 5 6 6 7 8 7 7 7 7 6 5 5 5 4 4 4 4 4 4 3 2 3 3 3 2 1 2 2 3
2 2 2 2 2 2 3 1 1 2 1 0 1 1 2 3 3 4 4 4 5 5 6 7 7 7 8 8 7 7 6 5 5 5 5 5 5 5 4 3 3 3 3 3 2 2 2 2 2
2 2 2 2 3 2 2 3 1 2 2 1 1 1 1 2 2 2 3 4 4 5 6 6 7 7 7 7 7 7 7 6 6 6 6 6 6 5 5 5 4 4 4 4 3 3 2 2 3
Wind_Direction
270 252 240 229 223 228 233 234 220 86 53 34 23 10 9 17 34 83 90 17 358 29 108 137 138 144 146 149 152 155 156 157 159 159 159 159 158 155 153 152 150 149 144 137 132 128 121 114 110
274 237 226 226 229 225 224 217 195 99 71 46 23 355 5 58 61 78 42 360 351 40 94 133 133 144 149 151 155 157 161 163 166 167 166 166 166 164 163 162 156 153 147 140 134 128 123 119 114
267 241 218 219 227 228 230 145 112 94 85 87 113 19 22 42 47 53 18 355 359 41 76 125 137 147 152 156 161 163 168 171 173 173 173 174 174 172 171 167 160 155 147 142 137 133 128 124 123
234 219 242 238 234 237 60 64 68 101 110 114 103 113 80 52 48 33 15 6 10 31 50 114 140 151 158 164 170 174 177 179 181 181 180 182 182 181 176 168 159 153 148 146 143 139 134 131 133
240 221 218 229 236 231 101 82 54 130 134 140 191 90 89 75 60 31 17 10 14 25 34 103 142 161 168 173 175 180 186 188 189 189 189 190 190 188 179 167 162 157 154 154 152 148 143 141 144
223 230 221 220 217 204 139 107 135 210 123 113 127 151 94 82 59 27 13 11 16 24 23 51 131 174 185 185 185 187 191 194 197 197 199 197 197 194 182 173 169 166 164 164 161 157 154 153 155
235 232 240 229 208 184 145 121 188 221 151 105 50 30 109 74 53 26 12 15 13 18 21 14 42 159 201 199 195 198 199 200 202 203 203 200 198 195 186 179 176 174 172 170 167 166 164 164 165
268 266 250 243 221 150 96 92 50 8 31 46 30 13 78 49 33 20 7 11 13 10 14 7 2 6 269 222 211 207 206 206 206 207 203 201 201 197 190 186 182 179 177 175 172 170 171 171 170
275 256 240 243 225 108 103 110 90 31 344 22 34 40 41 24 20 11 0 359 4 5 3 0 354 346 322 262 228 212 211 210 208 207 203 199 200 199 192 194 187 183 181 181 177 174 172 169 170
233 237 246 20 31 82 90 72 62 186 228 220 145 69 28 16 9 0 353 345 347 348 347 351 349 333 318 295 263 223 216 207 210 209 198 199 201 199 196 192 187 185 183 182 181 178 171 169 172
219 238 100 53 43 49 65 55 358 289 248 341 3 6 8 3 354 346 338 333 328 328 328 332 330 323 312 296 284 250 230 212 211 216 203 198 199 196 191 171 177 181 180 182 183 178 182 192 186
190 219 76 79 47 29 22 2 320 293 313 355 352 353 344 328 322 319 318 319 319 320 320 322 320 312 298 282 274 265 244 224 216 217 212 199 195 192 178 174 175 178 183 185 182 186 197 203 200
188 143 92 88 83 338 307 277 285 276 293 310 319 322 314 311 311 308 306 310 313 311 312 310 304 298 294 283 266 262 250 235 228 221 216 202 195 194 186 182 181 184 184 186 185 191 200 202 207
147 129 134 150 187 222 254 261 256 253 270 286 283 281 290 296 303 309 318 313 309 307 304 303 300 292 286 279 266 259 248 241 234 225 219 210 200 194 191 190 186 189 188 188 189 193 199 201 204
118 133 172 190 202 162 269 251 218 226 249 274 279 282 292 291 295 303 312 310 310 308 305 298 293 291 286 279 274 270 258 245 236 231 223 214 206 199 192 195 193 193 190 189 192 195 196 196 200
164 175 180 160 183 157 221 254 128 132 232 263 281 292 294 294 300 314 313 308 308 306 304 299 299 295 285 275 270 272 268 255 240 232 230 222 216 207 196 195 198 196 190 189 192 194 191 192 194
187 202 163 142 173 183 222 251 150 181 253 276 283 296 310 320 334 336 325 314 306 303 303 298 290 289 291 287 273 266 270 267 250 237 233 230 222 215 203 197 198 195 192 193 195 197 190 190 194
183 190 155 150 151 212 236 251 253 232 275 296 316 335 342 342 345 344 338 332 321 314 309 302 294 283 282 283 282 276 270 269 262 245 239 238 227 218 209 201 199 196 193 196 196 194 192 191 191
69 116 125 97 105 243 245 256 258 234 252 333 341 341 344 343 346 346 341 335 328 321 313 301 296 288 285 283 280 277 272 268 268 256 245 242 233 222 216 210 202 200 200 199 196 192 193 196 177
69 101 98 99 130 262 266 270 260 208 132 28 340 347 348 344 347 345 342 338 330 322 319 309 298 289 282 277 275 269 271 268 262 258 252 244 232 220 220 213 207 204 201 202 199 194 191 194 180
49 31 83 6 311 253 259 269 209 151 121 104 25 360 350 352 348 343 343 342 335 326 319 315 305 291 279 279 289 297 292 287 280 272 261 248 239 226 217 215 212 209 205 206 205 200 194 198 196
71 47 52 293 294 271 238 278 207 156 157 187 14 7 359 360 350 346 345 341 338 331 326 320 315 306 297 288 282 281 279 272 269 267 261 254 245 237 221 216 213 212 212 212 210 207 203 197 199
52 11 312 270 270 284 240 243 256 138 192 323 2 7 7 1 350 345 345 341 342 341 337 328 326 320 312 300 280 275 278 279 282 280 270 262 246 241 237 226 213 210 211 214 214 210 207 206 203
338 285 259 245 253 254 217 206 265 141 304 336 2 13 2 356 349 347 346 346 347 346 344 340 335 330 330 323 311 292 285 286 291 287 274 275 267 248 248 242 226 217 210 210 214 214 215 216 214
243 278 233 199 214 232 168 194 246 110 67 21 8 1 356 1 354 350 350 353 352 348 348 349 349 344 339 334 326 311 297 293 289 293 290 291 283 271 265 254 240 232 224 219 218 217 221 220 222
238 289 330 304 300 312 182 222 218 102 86 53 16 350 356 2 357 352 352 355 353 350 353 354 352 352 351 348 340 333 323 309 309 318 317 311 305 304 305 286 275 263 244 232 227 225 228 227 229
293 259 346 309 294 271 230 198 173 114 109 49 310 349 0 358 356 352 354 359 357 356 357 354 355 358 0 360 356 355 352 348 349 348 344 335 339 338 339 338 328 318 306 277 247 241 246 242 237
294 328 319 272 297 286 243 217 235 192 248 276 320 18 9 2 0 1 5 5 0 357 357 1 3 1 2 4 2 359 1 4 4 7 4 359 356 354 351 353 359 354 348 341 325 305 296 273 261
192 225 249 266 273 288 297 285 78 135 137 148 18 38 25 7 8 7 7 7 2 1 5 4 2 5 8 6 2 2 3 7 10 15 10 5 4 3 6 4 15 12 359 348 349 342 333 295 291
253 244 236 266 283 256 272 271 108 128 143 142 109 56 38 22 8 14 15 9 7 6 7 8 5 9 7 3 8 11 11 15 18 17 9 7 11 12 15 17 25 21 11 10 9 1 348 325 312